FW6471 Weather Reports


Display with metric or nautical units.
time (UTC)temp
F
wind
direction
speed
MPH
gust
MPH
rain 1hr
in
rain 24hr
in
rain mn
in
humidity
%
barometer
mb
20260506094110 62 147 0.0 0.0 0.00 0.00 0.00 91 1017.0
20260506093610 62 147 0.0 0.0 0.00 0.00 0.00 91 1017.1
20260506093110 62 147 0.0 0.0 0.00 0.00 0.00 91 1017.0
20260506092610 62 147 0.0 0.0 0.00 0.00 0.00 91 1017.1
20260506092111 62 147 0.0 0.0 0.00 0.00 0.00 91 1017.0
20260506091610 62 147 0.0 0.0 0.00 0.00 0.00 91 1017.0
20260506085611 63 147 0.0 0.0 0.00 0.00 0.00 90 1016.9
20260506083611 63 147 0.0 0.0 0.00 0.00 0.00 90 1016.9
20260506082610 63 147 0.0 0.0 0.00 0.00 0.00 90 1016.8
20260506082110 63 147 0.0 0.0 0.00 0.00 0.00 90 1016.9
20260506081611 63 147 0.0 1.0 0.00 0.00 0.00 90 1016.8
20260506081110 63 147 0.0 1.0 0.00 0.00 0.00 90 1016.8
20260506080610 63 147 0.0 0.0 0.00 0.00 0.00 89 1016.8
20260506080116 63 147 0.0 0.0 0.00 0.00 0.00 89 1016.8
20260506072610 63 147 0.0 0.0 0.00 0.00 0.00 88 1017.2
20260506072110 64 147 0.0 0.0 0.00 0.00 0.00 88 1017.1
20260506071610 64 147 0.0 0.0 0.00 0.00 0.00 88 1017.2
20260506071110 64 147 0.0 0.0 0.00 0.00 0.00 88 1017.2
20260506070610 64 147 0.0 0.0 0.00 0.00 0.00 88 1017.3
20260506070116 64 147 0.0 0.0 0.00 0.00 0.00 87 1017.2
20260506062110 65 147 0.0 0.0 0.00 0.00 0.00 86 1017.5
20260506061610 65 147 0.0 0.0 0.00 0.00 0.00 86 1017.5
20260506061110 65 147 0.0 0.0 0.00 0.00 0.00 85 1017.5
20260506060610 65 147 0.0 0.0 0.00 0.00 0.00 85 1017.6
20260506060116 65 147 0.0 0.0 0.00 0.00 0.00 85 1017.6
20260506051110 67 147 0.0 9.0 0.00 0.00 0.00 81 1017.9
20260506050610 67 147 0.0 0.0 0.00 0.00 0.00 81 1018.0
20260506045111 68 147 0.0 0.0 0.00 0.00 0.00 79 1018.3
20260506044610 68 147 0.0 0.0 0.00 0.00 0.00 79 1018.3
20260506044110 69 147 0.0 0.0 0.00 0.00 0.00 78 1018.3
20260506043609 69 147 0.0 0.0 0.00 0.00 0.00 77 1018.3
20260506043110 69 147 0.0 0.0 0.00 0.00 0.00 77 1018.2
20260506042610 69 147 0.0 0.0 0.00 0.00 0.00 76 1018.3
20260506042110 70 147 0.0 0.0 0.00 0.00 0.00 76 1018.3
20260506041110 70 147 0.0 1.0 0.00 0.00 0.00 75 1018.1
20260506040610 70 147 0.0 1.0 0.00 0.00 0.00 75 1018.0
20260506040116 70 147 0.0 2.0 0.00 0.00 0.00 75 1018.0
20260506035610 71 147 0.0 1.0 0.00 0.00 0.00 74 1017.9
20260506035110 71 147 0.0 0.0 0.00 0.00 0.00 74 1017.9
20260506034609 71 147 0.0 0.0 0.00 0.00 0.00 73 1018.0
20260506034110 71 147 0.0 0.0 0.00 0.00 0.00 73 1018.1
20260506033610 72 147 0.0 1.0 0.00 0.00 0.00 72 1018.0
20260506033110 72 147 0.0 1.0 0.00 0.00 0.00 72 1017.9
20260506032610 72 147 0.0 1.0 0.00 0.00 0.00 71 1018.0
20260506032110 72 147 0.0 1.0 0.00 0.00 0.00 71 1018.0
20260506031110 73 147 1.0 2.0 0.00 0.00 0.00 70 1017.9
20260506030609 73 147 1.0 3.0 0.00 0.00 0.00 70 1017.9
20260506030115 73 137 1.0 2.0 0.00 0.00 0.00 70 1017.8
20260506025610 73 137 1.0 3.0 0.00 0.00 0.00 69 1017.9
20260506025111 74 137 1.0 2.0 0.00 0.00 0.00 68 1017.9
20260506024609 74 137 1.0 2.0 0.00 0.00 0.00 68 1017.8
20260506024110 74 137 1.0 3.0 0.00 0.00 0.00 68 1017.8
20260506023610 74 117 1.0 2.0 0.00 0.00 0.00 68 1017.8
20260506023110 74 117 1.0 2.0 0.00 0.00 0.00 68 1017.7
20260506022609 74 117 1.0 3.0 0.00 0.00 0.00 68 1017.7
20260506022110 75 117 1.0 2.0 0.00 0.00 0.00 68 1017.6
20260506021610 75 117 1.0 2.0 0.00 0.00 0.00 68 1017.6
20260506021110 75 117 1.0 2.0 0.00 0.00 0.00 68 1017.6
20260506020610 75 117 0.0 2.0 0.00 0.00 0.00 68 1017.6
20260506015610 75 117 1.0 2.0 0.00 0.00 0.00 67 1017.4
20260506015110 76 116 1.0 3.0 0.00 0.00 0.00 67 1017.5
20260506013610 76 131 1.0 3.0 0.00 0.00 0.00 67 1017.2
20260506013109 76 133 0.0 2.0 0.00 0.00 0.00 66 1017.1
20260506012609 77 133 1.0 2.0 0.00 0.00 0.00 66 1017.0
20260506012110 77 132 1.0 2.0 0.00 0.00 0.00 65 1017.0
20260506011610 77 129 1.0 3.0 0.00 0.00 0.00 65 1016.9
20260506010609 78 129 2.0 3.0 0.00 0.00 0.00 64 1016.8
20260506004610 79 133 2.0 3.0 0.00 0.00 0.00 63 1016.5
20260506004110 79 118 2.0 3.0 0.00 0.00 0.00 64 1016.4
20260506003610 79 334 1.0 3.0 0.00 0.00 0.00 65 1016.2
20260506003109 79 335 2.0 3.0 0.00 0.00 0.00 66 1016.2
20260506002609 80 318 2.0 3.0 0.00 0.00 0.00 65 1016.1
20260506002110 80 326 2.0 5.0 0.00 0.00 0.00 64 1016.0
20260506001609 80 327 3.0 8.0 0.00 0.00 0.00 64 1015.9
20260506001110 80 298 2.0 6.0 0.00 0.00 0.00 63 1015.9
20260506000610 81 305 2.0 7.0 0.00 0.00 0.00 63 1015.8
20260506000116 82 324 3.0 7.0 0.00 0.00 0.00 61 1015.7
20260505235610 82 313 1.0 3.0 0.00 0.00 0.00 60 1015.6
20260505235109 83 5 0.0 1.0 0.00 0.00 0.00 58 1015.5
20260505234609 83 5 1.0 3.0 0.00 0.00 0.00 55 1015.5
20260505234109 83 156 0.0 1.0 0.00 0.00 0.00 52 1015.4
20260505233609 83 156 0.0 2.0 0.00 0.00 0.00 51 1015.2
20260505233109 83 156 0.0 1.0 0.00 0.00 0.00 51 1015.3
20260505232609 84 156 0.0 1.0 0.00 0.00 0.00 50 1015.2
20260505232109 84 156 0.0 0.0 0.00 0.00 0.00 52 1015.2
20260505231609 84 156 0.0 0.0 0.00 0.00 0.00 51 1015.2
20260505231109 84 156 0.0 0.0 0.00 0.00 0.00 50 1015.1
20260505230609 84 156 0.0 0.0 0.00 0.00 0.00 50 1015.1
20260505230115 84 156 0.0 0.0 0.00 0.00 0.00 49 1015.3
20260505225609 84 156 0.0 0.0 0.00 0.00 0.00 49 1015.4
20260505225110 84 156 0.0 0.0 0.00 0.00 0.00 47 1015.4
20260505224610 85 156 0.0 0.0 0.00 0.00 0.00 47 1015.5
20260505224110 85 156 0.0 0.0 0.00 0.00 0.00 48 1015.5
20260505223609 85 156 0.0 0.0 0.00 0.00 0.00 47 1015.5
20260505223110 85 156 0.0 3.0 0.00 0.00 0.00 46 1015.4
20260505222610 85 156 1.0 3.0 0.00 0.00 0.00 47 1015.4
20260505222110 85 156 2.0 3.0 0.00 0.00 0.00 46 1015.4
20260505221109 85 156 1.0 2.0 0.00 0.00 0.00 46 1015.5
20260505220609 85 156 1.0 3.0 0.00 0.00 0.00 46 1015.5
20260505220116 85 150 2.0 3.0 0.00 0.00 0.00 46 1015.4
20260505214610 86 156 1.0 3.0 0.00 0.00 0.00 46 1015.4
20260505214109 86 156 2.0 5.0 0.00 0.00 0.00 45 1015.4
20260505213609 86 151 2.0 3.0 0.00 0.00 0.00 45 1015.4
20260505212109 86 126 1.0 3.0 0.00 0.00 0.00 45 1015.4
20260505211609 86 124 1.0 2.0 0.00 0.00 0.00 45 1015.4
20260505211109 86 123 0.0 1.0 0.00 0.00 0.00 45 1015.4
20260505210610 86 123 1.0 3.0 0.00 0.00 0.00 45 1015.4
20260505210115 86 137 2.0 3.0 0.00 0.00 0.00 45 1015.4
20260505205610 86 130 1.0 3.0 0.00 0.00 0.00 47 1015.3
20260505205109 86 123 0.0 2.0 0.00 0.00 0.00 46 1015.3
20260505204609 86 123 2.0 3.0 0.00 0.00 0.00 46 1015.3
20260505202609 87 172 0.0 2.0 0.00 0.00 0.00 45 1015.4
20260505202110 87 172 0.0 1.0 0.00 0.00 0.00 44 1015.5
20260505201610 87 172 2.0 3.0 0.00 0.00 0.00 43 1015.5
20260505201109 87 172 1.0 5.0 0.00 0.00 0.00 44 1015.6
20260505200609 88 171 2.0 5.0 0.00 0.00 0.00 42 1015.5
20260505200115 89 341 1.0 3.0 0.00 0.00 0.00 43 1015.6
20260505195609 88 40 1.0 5.0 0.00 0.00 0.00 44 1015.7
20260505194609 88 60 2.0 3.0 0.00 0.00 0.00 42 1015.8
20260505194109 88 178 3.0 6.0 0.00 0.00 0.00 44 1015.9
20260505193609 88 100 3.0 7.0 0.00 0.00 0.00 43 1015.9
20260505193109 88 137 2.0 8.0 0.00 0.00 0.00 45 1016.0
20260505192609 88 212 1.0 3.0 0.00 0.00 0.00 45 1016.1
20260505192109 87 331 1.0 3.0 0.00 0.00 0.00 44 1016.1
20260505191609 87 129 2.0 3.0 0.00 0.00 0.00 46 1016.1
20260505191109 88 162 3.0 7.0 0.00 0.00 0.00 46 1016.3
20260505190609 88 58 1.0 3.0 0.00 0.00 0.00 47 1016.3
20260505190116 87 128 2.0 3.0 0.00 0.00 0.00 48 1016.4
20260505185109 85 39 2.0 7.0 0.00 0.00 0.00 50 1016.6
20260505184608 85 148 2.0 5.0 0.00 0.00 0.00 50 1016.6
20260505184109 85 152 3.0 6.0 0.00 0.00 0.00 50 1016.5
20260505183609 85 67 1.0 3.0 0.00 0.00 0.00 49 1016.5
20260505183109 86 6 2.0 6.0 0.00 0.00 0.00 48 1016.6
20260505182108 85 139 5.0 9.0 0.00 0.00 0.00 50 1016.7
20260505181609 84 156 5.0 8.0 0.00 0.00 0.00 50 1016.7
20260505181109 85 152 2.0 7.0 0.00 0.00 0.00 50 1016.8
20260505180609 86 114 2.0 3.0 0.00 0.00 0.00 49 1016.9
20260505180115 86 46 3.0 7.0 0.00 0.00 0.00 48 1017.0
20260505174609 83 38 1.0 3.0 0.00 0.00 0.00 54 1017.2
20260505174109 83 147 2.0 3.0 0.00 0.00 0.00 54 1017.4
20260505173609 83 160 2.0 3.0 0.00 0.00 0.00 54 1017.4
20260505173109 84 114 2.0 5.0 0.00 0.00 0.00 52 1017.5
20260505171609 85 239 2.0 7.0 0.00 0.00 0.00 52 1017.6
20260505171108 84 111 3.0 7.0 0.00 0.00 0.00 53 1017.6
20260505170116 83 103 4.0 7.0 0.00 0.00 0.00 55 1017.7
20260505165609 83 160 2.0 8.0 0.00 0.00 0.00 55 1017.8
20260505164609 84 170 3.0 5.0 0.00 0.00 0.00 54 1017.7
20260505164109 83 86 2.0 8.0 0.00 0.00 0.00 55 1017.8
20260505163609 82 158 3.0 8.0 0.00 0.00 0.00 57 1017.9
20260505163109 82 82 2.0 5.0 0.00 0.00 0.00 56 1017.8
20260505162609 82 129 2.0 3.0 0.00 0.00 0.00 56 1017.8
20260505162109 82 166 5.0 8.0 0.00 0.00 0.00 55 1017.8
20260505161609 82 176 3.0 8.0 0.00 0.00 0.00 56 1017.8
20260505161108 82 166 1.0 7.0 0.00 0.00 0.00 56 1017.9
20260505160609 82 155 2.0 3.0 0.00 0.00 0.00 56 1017.8
20260505160115 83 348 3.0 5.0 0.00 0.00 0.00 55 1017.9
20260505153109 82 107 3.0 7.0 0.00 0.00 0.00 57 1017.8
20260505152609 81 117 3.0 5.0 0.00 0.00 0.00 59 1017.8
20260505152109 80 57 3.0 7.0 0.00 0.00 0.00 59 1017.9
20260505151609 80 75 1.0 5.0 0.00 0.00 0.00 61 1017.8
20260505151108 79 89 1.0 3.0 0.00 0.00 0.00 63 1017.8
20260505150609 79 165 2.0 3.0 0.00 0.00 0.00 62 1017.8
20260505150115 79 44 1.0 3.0 0.00 0.00 0.00 63 1017.8
20260505140608 77 99 3.0 6.0 0.00 0.00 0.00 70 1017.6
20260505140115 77 110 3.0 6.0 0.00 0.00 0.00 71 1017.4
20260505130115 70 101 1.0 3.0 0.00 0.00 0.00 86 1017.5
20260505124608 68 11 0.0 2.0 0.00 0.00 0.00 89 1017.4
20260505124109 67 11 1.0 1.0 0.00 0.00 0.00 88 1017.4
20260505123609 67 11 1.0 2.0 0.00 0.00 0.00 89 1017.3
20260505123108 66 11 1.0 3.0 0.00 0.00 0.00 90 1017.5
20260505122109 65 42 1.0 2.0 0.00 0.00 0.00 91 1017.6
20260505121608 65 42 0.0 2.0 0.00 0.00 0.00 91 1017.5
20260505121109 65 42 1.0 3.0 0.00 0.00 0.00 91 1017.6
20260505120608 64 54 0.0 1.0 0.00 0.00 0.00 92 1017.6
20260505120115 64 54 0.0 1.0 0.00 0.00 0.00 92 1017.5
20260505115608 64 54 0.0 3.0 0.00 0.00 0.00 92 1017.6
20260505115108 63 45 0.0 2.0 0.00 0.00 0.00 93 1017.4
20260505114608 63 45 2.0 5.0 0.00 0.00 0.00 93 1017.4
20260505113608 62 48 1.0 3.0 0.00 0.00 0.00 93 1017.2
20260505113108 61 48 1.0 3.0 0.00 0.00 0.00 93 1017.2
20260505112609 61 42 0.0 0.0 0.00 0.00 0.00 93 1017.1
20260505111608 60 42 0.0 0.0 0.00 0.00 0.00 93 1016.8
20260505111109 60 42 0.0 0.0 0.00 0.00 0.00 93 1016.7
20260505110608 60 42 0.0 0.0 0.00 0.00 0.00 92 1016.6
20260505110115 60 42 0.0 0.0 0.00 0.00 0.00 92 1016.5
20260505102108 60 42 0.0 0.0 0.00 0.00 0.00 92 1016.3
20260505101608 60 42 0.0 0.0 0.00 0.00 0.00 92 1016.2
20260505101109 60 42 0.0 0.0 0.00 0.00 0.00 92 1016.2
20260505100608 60 42 0.0 0.0 0.00 0.00 0.00 92 1016.2
20260505100114 60 42 0.0 0.0 0.00 0.00 0.00 92 1016.4
20260505095108 60 42 0.0 0.0 0.00 0.00 0.00 92 1016.2
20260505094608 60 42 0.0 0.0 0.00 0.00 0.00 92 1016.2